This is the latest recevied weather packets stored in our database for station/object K5NCO. If no packets are shown the sender has not sent any weather packets the latest 10 day(s).
| Time | Temp. | Humidity | Pressure | Rain* | Wind** | Luminosity | Snow |
|---|---|---|---|---|---|---|---|
| 1777758308 | 22.78° C | 43% | 1021.6 hPa | 0 mm | - | 467 W/m² | - |
| 1777758006 | 22.78° C | 43% | 1021.6 hPa | 0 mm | - | 479 W/m² | - |
| 1777757702 | 22.78° C | 43% | 1021.7 hPa | 0 mm | - | 500 W/m² | - |
| 1777757400 | 22.78° C | 42% | 1021.9 hPa | 0 mm | - | 512 W/m² | - |
| 1777757099 | 22.78° C | 42% | 1021.8 hPa | 0 mm | - | 528 W/m² | - |
| 1777756795 | 22.78° C | 43% | 1021.9 hPa | 0 mm | - | 531 W/m² | - |
| 1777756491 | 22.78° C | 41% | 1021.8 hPa | 0 mm | - | 549 W/m² | - |
| 1777756189 | 22.78° C | 42% | 1022 hPa | 0 mm | - | 558 W/m² | - |
| 1777755885 | 22.78° C | 42% | 1022.2 hPa | 0 mm | - | 574 W/m² | - |
| 1777755583 | 22.78° C | 42% | 1022.1 hPa | 0 mm | - | 594 W/m² | - |
| 1777755279 | 22.78° C | 41% | 1022.4 hPa | 0 mm | - | 599 W/m² | - |
| 1777754976 | 22.22° C | 42% | 1022.5 hPa | 0 mm | - | 606 W/m² | - |
| 1777754673 | 22.78° C | 42% | 1022.5 hPa | 0 mm | - | 624 W/m² | - |
| 1777754371 | 22.78° C | 43% | 1022.4 hPa | 0 mm | - | 158 W/m² | - |
| 1777754068 | 22.78° C | 46% | 1022.5 hPa | 0 mm | - | 652 W/m² | - |
| 1777753764 | 22.22° C | 43% | 1022.6 hPa | 0 mm | - | 660 W/m² | - |
| 1777753461 | 22.78° C | 45% | 1022.6 hPa | 0 mm | - | 655 W/m² | - |
| 1777753159 | 22.78° C | 43% | 1022.8 hPa | 0 mm | - | 659 W/m² | - |
| 1777752855 | 22.22° C | 42% | 1022.8 hPa | 0 mm | - | 673 W/m² | - |
| 1777752552 | 22.22° C | 44% | 1022.9 hPa | 0 mm | - | 676 W/m² | - |
| 1777752247 | 22.22° C | 42% | 1022.8 hPa | 0 mm | - | 684 W/m² | - |
| 1777751946 | 22.78° C | 42% | 1022.8 hPa | 0 mm | - | 689 W/m² | - |
| 1777751642 | 22.22° C | 42% | 1022.5 hPa | 0 mm | - | 696 W/m² | - |
| 1777751339 | 22.22° C | 43% | 1022.6 hPa | 0 mm | - | 701 W/m² | - |
| 1777751035 | 22.78° C | 44% | 1022.8 hPa | 0 mm | - | 707 W/m² | - |
* Rain latest hour (hover to see other rain measurements)
** Current wind speed in m/s (hover to see current wind gust speed)